SRSS-1 (44704 NORAD) Tracking and Keplerian Element Data

This shows tracking and keplerian element data for the satellite.

Feedback or suggestion? Click here.




ElementValue
Catalog44704
NameSRSS-1
Epoch Orbit453
Epoch Day336.95800094
Epoch Year2019
RAAN49.6578
Inclination97.4929
Eccentricity0.0016313
Argument of Perigee169.9337
Mean Anonmoly304.852
Mean Motion15.23576808
Decay Rate1.003E-05
L11 44704U 19072B 19336.95800094 .00001003 00000-0 44828-4 0 9999
L22 44704 97.4929 49.6578 0016313 169.9337 304.8520 15.23576808 4531

Live tracking and technical data element details for SRSS-1 (NORAD 44704). SRSS-1 can be tracked NOW for your location showing map with azimuth and elevation plus other details from your city location.

Track the satellite on the map from your city or location and see movement details for azimuth, elevation, latitude, longitude, range, height, and movement on the map or in text.







IsCatalogInMostPopularTable: catalog: 44704, numindb: 9
Update: records affected: 1



GetName: 44704 SRSS-1

Hit Count: updated at: Thu, 05 Dec 2019 16:44:50 GMT